STARLINK-4503 (53528 NORAD) Tracking and Keplerian Element Data

This shows tracking and keplerian element data for the satellite.

Feedback or suggestion? Click here.




ElementValue
Catalog53528
NameSTARLINK-4503
Epoch Orbit1423
Epoch Day324.60766716
Epoch Year2022
RAAN83.9409
Inclination53.2195
Eccentricity0.0001765
Argument of Perigee43.8702
Mean Anonmoly316.243
Mean Motion15.08837366
Decay Rate5.52E-06
L11 53528U 22101B 22324.60766716 .00000552 00000+0 52814-4 0 9996
L22 53528 53.2195 83.9409 0001765 43.8702 316.2430 15.08837366 14232



Live tracking and technical data element details for STARLINK-4503 (NORAD 53528). STARLINK-4503 can be tracked NOW for your location showing map with azimuth and elevation plus other details from your city location.







IsCatalogInMostPopularTable: catalog: 53528, numindb: 3
Update: records affected: 1



GetName: 53528 STARLINK-4503

Hit Count: updated at: Thu, 08 Dec 2022 19:15:46 GMT